User: anonymous   Login
Location: Paddlesworth
(51.1000°N, 1.1333°E)
Time: 17:38:58
(UTC+00:00)
Language:

Cosmos 1818 - Orbit

View from above orbital plane
View from above orbital plane
View from above satellite
View from above satellite

Ground track
Ground track

The orbit data is extracted from the following two-line orbital elements,

1 17369U 87011A   21210.44135815 -.00000106  00000-0 -19530-5 0  9992
2 17369  65.0092 203.7792 0021955 273.9761  85.8814 14.31470046853434
Epoch (UTC): 29 July 2021 10:35:33
Eccentricity: 0.0021955
inclination: 65.0092°
perigee height: 771 km
apogee height: 802 km
right ascension of ascending node: 203.7792°
argument of perigee: 273.9761°
revolutions per day: 14.31470046
mean anomaly at epoch: 85.8814°
orbit number at epoch: 85343

The dashed part of the orbit path shows where the satellite is in the earth's shadow,  

DLR